Change the Weather History Date:

Saturday, April 6, 2013

  Actual Average Record
Temperature  
Mean Temperature 40 °F -  
Max Temperature 48 °F 52 °F 88 °F (1991)
Min Temperature 32 °F 30 °F 10 °F (1982)
Degree Days  
Heating Degree Days 24    
Moisture  
Dew Point 34 °F    
Average Humidity 72    
Maximum Humidity 87    
Minimum Humidity 62    
Precipitation  
Precipitation 0.01 in - - ()
Sea Level Pressure  
Sea Level Pressure 29.62 in    
Wind  
Wind Speed 14 mph (North)    
Max Wind Speed 25 mph    
Max Gust Speed 31 mph    
Visibility 10 miles    
Events      
Averages and records for this station are not official NWS values.
T = Trace of Precipitation, MM = Missing Value Source: NWS Daily Summary

Daily Weather History Graph

Daily Weather History Graph

Search for Another Location

Airport or City:

Trip Planner

Search our weather history database for the weather conditions in past years. The results will help you decide how hot, cold, wet, or windy it might be!

Date:

Astronomy

Apr. 06, 2013 Rise Set
Actual Time 6:54 AM CDT 7:57 PM CDT
Civil Twilight 6:25 AM CDT 8:26 PM CDT
Nautical Twilight 5:49 AM CDT 9:02 PM CDT
Astronomical Twilight 5:12 AM CDT 9:39 PM CDT
Moon 4:47 AM CDT (4/6) 4:19 PM CDT (4/6)
Length of Visible Light 14h 01m
Length of Day
13h 02m
Waning Crescent, 15% of the Moon is Illuminated
Apr 6
Waning Crescent
Apr 10
New
Apr 18
First Quarter
Apr 25
Full
May 2
Last Quarter

Hourly Weather History & Observations

Time (CDT) Temp. Windchill Dew Point Humidity Pressure Visibility Wind Dir Wind Speed Gust Speed Precip Events Conditions
12:15 AM 37.4 °F 28.9 °F 30.2 °F 75% 29.68 in 10.0 mi SE 13.8 mph - N/A   Overcast
12:35 AM 37.4 °F 29.3 °F 30.2 °F 75% 29.67 in 10.0 mi ESE 12.7 mph - N/A   Mostly Cloudy
12:55 AM 37.4 °F 28.9 °F 30.2 °F 75% 29.66 in 10.0 mi ESE 13.8 mph - N/A   Mostly Cloudy
1:15 AM 39.2 °F 31.6 °F 30.2 °F 70% 29.65 in 10.0 mi ESE 12.7 mph - N/A   Mostly Cloudy
1:35 AM 39.2 °F 31.6 °F 30.2 °F 70% 29.64 in 10.0 mi SE 12.7 mph - N/A   Overcast
1:55 AM 41.0 °F 33.9 °F 32.0 °F 70% 29.63 in 10.0 mi SE 12.7 mph - N/A   Overcast
2:15 AM 42.8 °F 36.2 °F 32.0 °F 66% 29.62 in 10.0 mi SE 12.7 mph - N/A   Overcast
2:35 AM 42.8 °F 36.2 °F 32.0 °F 66% 29.59 in 10.0 mi SE 12.7 mph - N/A   Overcast
2:55 AM 42.8 °F 36.6 °F 33.8 °F 70% 29.58 in 10.0 mi ESE 11.5 mph - N/A   Overcast
3:15 AM 44.6 °F 38.8 °F 33.8 °F 66% 29.58 in 10.0 mi SE 11.5 mph - N/A   Overcast
3:35 AM 44.6 °F 40.7 °F 35.6 °F 71% 29.57 in 10.0 mi East 6.9 mph - N/A   Overcast
3:55 AM 42.8 °F 36.2 °F 33.8 °F 70% 29.55 in 10.0 mi ESE 12.7 mph - N/A   Overcast
4:15 AM 44.6 °F 39.7 °F 35.6 °F 71% 29.55 in 10.0 mi SE 9.2 mph - N/A   Overcast
4:35 AM 44.6 °F 39.2 °F 35.6 °F 71% 29.54 in 10.0 mi SE 10.4 mph - N/A   Overcast
4:55 AM 46.4 °F 40.4 °F 35.6 °F 66% 29.52 in 10.0 mi SE 13.8 mph - N/A   Overcast
5:15 AM 46.4 °F 40.4 °F 35.6 °F 66% 29.52 in 10.0 mi SE 13.8 mph - N/A   Overcast
5:35 AM 46.4 °F 40.7 °F 37.4 °F 71% 29.52 in 10.0 mi SE 12.7 mph - N/A   Overcast
5:55 AM 46.4 °F 41.5 °F 37.4 °F 71% 29.52 in 10.0 mi ESE 10.4 mph - N/A   Overcast
6:15 AM 46.4 °F 41.1 °F 37.4 °F 71% 29.51 in 10.0 mi ESE 11.5 mph - N/A   Mostly Cloudy
6:35 AM 46.4 °F 41.5 °F 37.4 °F 71% 29.51 in 10.0 mi ESE 10.4 mph - N/A   Partly Cloudy
6:55 AM 44.6 °F 40.2 °F 37.4 °F 76% 29.51 in 10.0 mi ESE 8.1 mph - N/A   Mostly Cloudy
7:15 AM 44.6 °F 39.2 °F 37.4 °F 76% 29.51 in 10.0 mi ESE 10.4 mph - N/A   Scattered Clouds
7:35 AM 44.6 °F 39.7 °F 37.4 °F 76% 29.50 in 10.0 mi ESE 9.2 mph - N/A   Clear
7:55 AM 44.6 °F 40.2 °F 37.4 °F 76% 29.50 in 10.0 mi ESE 8.1 mph - N/A   Clear
8:15 AM 44.6 °F 40.2 °F 37.4 °F 76% 29.50 in 10.0 mi ESE 8.1 mph - N/A   Clear
8:35 AM 46.4 °F 43.5 °F 39.2 °F 76% 29.50 in 10.0 mi ESE 5.8 mph - N/A   Clear
8:55 AM 46.4 °F - 39.2 °F 76% 29.50 in 10.0 mi Calm Calm - N/A   Clear
9:15 AM 44.6 °F 38.1 °F 37.4 °F 76% 29.49 in 10.0 mi NW 13.8 mph - N/A   Clear
9:35 AM 42.8 °F 35.4 °F 35.6 °F 76% 29.51 in 10.0 mi WNW 15.0 mph - N/A   Clear
9:55 AM 42.8 °F 34.8 °F 33.8 °F 70% 29.50 in 10.0 mi NW 17.3 mph - N/A   Clear
10:15 AM 42.8 °F 34.3 °F 33.8 °F 70% 29.51 in 10.0 mi NW 19.6 mph - N/A   Clear
10:35 AM 42.8 °F 34.0 °F 33.8 °F 70% 29.53 in 10.0 mi NW 20.7 mph - N/A   Clear
10:55 AM 42.8 °F 34.0 °F 33.8 °F 70% 29.54 in 10.0 mi NW 20.7 mph - N/A   Clear
11:15 AM 42.8 °F 34.3 °F 33.8 °F 70% 29.55 in 10.0 mi NW 19.6 mph 23.0 mph N/A   Partly Cloudy
11:35 AM 42.8 °F 34.5 °F 35.6 °F 76% 29.54 in 10.0 mi NNW 18.4 mph - N/A   Mostly Cloudy
11:55 AM 41.0 °F 31.4 °F 33.8 °F 76% 29.55 in 9.0 mi NW 21.9 mph 25.3 mph N/A   Scattered Clouds
12:15 PM 39.2 °F 29.0 °F 33.8 °F 81% 29.57 in 6.0 mi NW 21.9 mph 25.3 mph 0.01 in   Mostly Cloudy
12:35 PM 39.2 °F 29.6 °F 33.8 °F 81% 29.56 in 9.0 mi NNW 19.6 mph 25.3 mph 0.01 in   Mostly Cloudy
12:55 PM 41.0 °F 31.9 °F 33.8 °F 76% 29.58 in 10.0 mi NNW 19.6 mph - 0.01 in   Mostly Cloudy
1:15 PM 42.8 °F 33.5 °F 33.8 °F 70% 29.58 in 10.0 mi NW 23.0 mph 26.5 mph N/A   Mostly Cloudy
1:35 PM 42.8 °F 34.5 °F 33.8 °F 70% 29.58 in 10.0 mi NW 18.4 mph 26.5 mph N/A   Overcast
1:55 PM 42.8 °F 34.3 °F 33.8 °F 70% 29.58 in 10.0 mi NNW 19.6 mph - N/A   Overcast
2:15 PM 44.6 °F 35.9 °F 35.6 °F 71% 29.58 in 10.0 mi NNW 23.0 mph 29.9 mph N/A   Mostly Cloudy
2:35 PM 44.6 °F 36.1 °F 35.6 °F 71% 29.58 in 10.0 mi NNW 21.9 mph 27.6 mph N/A   Mostly Cloudy
2:55 PM 44.6 °F 36.1 °F 35.6 °F 71% 29.59 in 10.0 mi NNW 21.9 mph - N/A   Scattered Clouds
3:15 PM 46.4 °F 38.1 °F 37.4 °F 71% 29.61 in 10.0 mi NNW 24.2 mph 27.6 mph N/A   Scattered Clouds
3:35 PM 48.2 °F - 35.6 °F 62% 29.61 in 10.0 mi NNW 19.6 mph 28.8 mph N/A   Scattered Clouds
3:55 PM 48.2 °F - 35.6 °F 62% 29.62 in 10.0 mi NNW 25.3 mph 31.1 mph N/A   Partly Cloudy
4:15 PM 48.2 °F - 37.4 °F 66% 29.63 in 10.0 mi NNW 20.7 mph 28.8 mph N/A   Mostly Cloudy
4:35 PM 48.2 °F - 35.6 °F 62% 29.63 in 10.0 mi NNW 18.4 mph 28.8 mph N/A   Mostly Cloudy
4:55 PM 48.2 °F - 35.6 °F 62% 29.64 in 10.0 mi NNW 17.3 mph - N/A   Mostly Cloudy
5:15 PM 46.4 °F 39.2 °F 35.6 °F 66% 29.65 in 10.0 mi NNW 18.4 mph 26.5 mph N/A   Scattered Clouds
5:35 PM 46.4 °F 38.7 °F 35.6 °F 66% 29.67 in 10.0 mi NNW 20.7 mph 26.5 mph N/A   Mostly Cloudy
5:55 PM 44.6 °F 36.6 °F 35.6 °F 71% 29.69 in 10.0 mi NNW 19.6 mph - N/A   Overcast
6:15 PM 42.8 °F 34.8 °F 33.8 °F 70% 29.70 in 10.0 mi NNW 17.3 mph - N/A   Overcast
6:35 PM 42.8 °F 34.5 °F 33.8 °F 70% 29.71 in 10.0 mi NNW 18.4 mph 24.2 mph N/A   Overcast
6:55 PM 41.0 °F 32.5 °F 33.8 °F 76% 29.72 in 9.0 mi NNW 17.3 mph 25.3 mph N/A   Overcast
7:15 PM 39.2 °F 30.2 °F 33.8 °F 81% 29.73 in 8.0 mi NNW 17.3 mph - N/A   Overcast
7:35 PM 39.2 °F 30.8 °F 33.8 °F 81% 29.73 in 8.0 mi NNW 15.0 mph - N/A   Overcast
7:55 PM 39.2 °F 31.6 °F 32.0 °F 75% 29.74 in 9.0 mi NNW 12.7 mph - N/A   Overcast
8:15 PM 39.2 °F 30.2 °F 30.2 °F 70% 29.75 in 8.0 mi NNW 17.3 mph - N/A   Overcast
8:35 PM 37.4 °F 28.2 °F 30.2 °F 75% 29.76 in 10.0 mi NW 16.1 mph 21.9 mph N/A   Overcast
8:55 PM 37.4 °F 28.9 °F 30.2 °F 75% 29.76 in 10.0 mi NNW 13.8 mph - N/A   Overcast
9:15 PM 37.4 °F 29.8 °F 30.2 °F 75% 29.77 in 10.0 mi NNW 11.5 mph - N/A   Overcast
9:35 PM 37.4 °F 28.5 °F 30.2 °F 75% 29.79 in 10.0 mi NNW 15.0 mph - N/A   Overcast
9:55 PM 37.4 °F 30.3 °F 30.2 °F 75% 29.80 in 10.0 mi NW 10.4 mph - N/A   Overcast
10:15 PM 37.4 °F 28.2 °F 30.2 °F 75% 29.79 in 7.0 mi NNW 16.1 mph - N/A   Overcast
10:35 PM 35.6 °F 27.5 °F 28.4 °F 75% 29.80 in 5.0 mi NNW 11.5 mph - N/A   Mostly Cloudy
10:55 PM 33.8 °F 25.8 °F 28.4 °F 81% 29.81 in 5.0 mi NNW 10.4 mph - N/A   Mostly Cloudy
11:15 PM 33.8 °F 25.8 °F 28.4 °F 81% 29.81 in 5.0 mi NNW 10.4 mph - N/A   Partly Cloudy
11:35 PM 33.8 °F 27.0 °F 28.4 °F 81% 29.81 in 8.0 mi NW 8.1 mph - N/A   Clear
11:55 PM 32.0 °F 24.8 °F 28.4 °F 87% 29.81 in 6.0 mi NNW 8.1 mph - N/A   Clear